sat.trackr.live / text

‹ back to catalog

STARLINK-4666

NORAD 53789 · 2022-111S

PAYLOAD ACTIVE UNKNOWN

§ Identity

Operator
Country
US
Launch date
2022-09-11
Launch site
AFETR
Launch vehicle
Mass (kg)
RCS (m²)

Purposes: comms

External: N2YO · Heavens-Above · Gunter

§ Orbital elements

Epoch: 2026-09-20T03:03:52.790112Z

Period
93.85 min
Inclination
53.1588°
Eccentricity
0.0001216
Mean motion
15.34382184 rev/d
Perigee alt
461.9 km
Apogee alt
463.6 km
Semi-major
6,840.9 km
B*
1.3814e-4
RAAN
115.4135°
Arg perigee
86.8083°
Mean anomaly
273.3059°
Rev number
22,311

§ Raw data

STARLINK-46661 53789U 22111S   26263.12769433  .00004291  00000+0  13814-3 0  99982 53789  53.1588 115.4135 0001216  86.8083 273.3059 15.34382184223114

JSON: /api/v1/satellites/53789 · /tle

For live sub-satellite position, see the globe view (requires WebGL).

§ Visibility from observer

Set your observer location to see the next 7 days of passes ≥ 10°. The values pass through the URL so the page stays shareable.

No JS? Fill the form by hand. The geolocation button needs JavaScript.